Location: ???????
(55.8860°N, 38.0932°E)
Time: 08:44:18
(UTC+00:00)

Cosmos 2333 Rocket - Pass Details

Date: 14 April 2024
Orbit: 839 x 862 km, 70.8° (Epoch: 20 May)

Event Time Altitude Azimuth Distance (km) Brightness Sun altitude
Exits shadow 00:04:52 27° 237° (WSW) 1,577 3.1 -17.0°
Maximum altitude 00:07:59 63° 310° (NW) 938 2.4 -16.7°
Drops below altitude 10° 00:13:36 10° 32° (NNE) 2,469 5.9 -16.1°
Sets 00:16:06 0° 36° (NE) 3,408 7.1 -15.9°
